Williston, ND

7:10 AM CDT on October 20, 2019 (GMT -0500)
Sloulin International

Weather History for KISN - August, 2019

Change the Weather History Date:

Thursday, August 15, 2019

  Actual Average Record
Temperature  
Mean Temperature 68 °F 70 °F  
Max Temperature 80 °F 85 °F 100 °F (1988)
Min Temperature 56 °F 55 °F 41 °F (1897)
Degree Days  
Heating Degree Days 0 1  
Month to date heating degree days 8 15  
Since 1 June heating degree days 93 159  
Since 1 July heating degree days 23 39  
Cooling Degree Days 3 6  
Month to date cooling degree days 83 100  
Year to date cooling degree days 327 363  
Since 1 June cooling degree days 321 350  
Growing Degree Days 18 (Base 50)    
Moisture  
Dew Point 56 °F    
Average Humidity 68    
Maximum Humidity 100    
Minimum Humidity 35    
Precipitation  
Precipitation 0.27 in 0.05 in 1.23 in (1968)
Month to date precipitation 1.85 0.72  
Year to date precipitation 11.51 10.39  
Sea Level Pressure  
Sea Level Pressure 29.94 in    
Wind  
Wind Speed 5 mph (WNW)    
Max Wind Speed 18 mph    
Max Gust Speed 23 mph    
Visibility 9 miles    
Events Rain , Thunderstorm    
T = Trace of Precipitation, MM = Missing Value Source: NWS Daily Summary

Daily Weather History Graph

Daily Weather History Graph

Search for Another Location

Airport or City:

Astronomy

Aug. 15, 2019 Rise Set
Actual Time 6:48 AM CDT 9:08 PM CDT
Civil Twilight 6:14 AM CDT 9:42 PM CDT
Nautical Twilight 5:31 AM CDT 10:25 PM CDT
Astronomical Twilight 4:41 AM CDT 11:14 PM CDT
Moon 9:39 PM CDT (8/15) 6:41 AM CDT (8/15)
Length of Visible Light 15h 28m
Length of Day
14h 19m
Full, 100% of the Moon is Illuminated
Aug 15
Full
Aug 23
Last Quarter
Aug 30
New
Sep 5
First Quarter
Sep 13
Full

Hourly Weather History & Observations

Time (CDT) Temp. Dew Point Humidity Pressure Visibility Wind Dir Wind Speed Gust Speed Precip Events Conditions
12:43 AM 61.0 °F 57.0 °F 87% 30.04 in 5.0 mi NNW 17.3 mph 34.5 mph 0.07 in Rain , Thunderstorm Rain
12:52 AM 61.0 °F 57.0 °F 87% 30.02 in 9.0 mi NNW 12.7 mph 25.3 mph 0.09 in Rain , Thunderstorm Light Rain
1:03 AM 61.0 °F 57.0 °F 87% 30.02 in 10.0 mi North 16.1 mph 24.2 mph 0.01 in Rain Rain
1:52 AM 61.0 °F 57.9 °F 90% 30.01 in 4.0 mi WSW 6.9 mph - 0.08 in Rain Rain
1:57 AM 60.1 °F 57.9 °F 93% 30.03 in 1.8 mi WSW 5.8 mph - 0.07 in Rain Heavy Rain
2:08 AM 60.1 °F 57.9 °F 93% 30.00 in 4.0 mi SE 6.9 mph - 0.17 in Rain Rain
2:52 AM 60.1 °F 57.9 °F 93% 29.96 in 10.0 mi Calm Calm - 0.20 in   Mostly Cloudy
3:52 AM 57.0 °F 55.9 °F 96% 29.94 in 10.0 mi NW 3.5 mph - N/A   Scattered Clouds
4:52 AM 57.9 °F 55.9 °F 93% 29.93 in 10.0 mi Calm Calm - N/A   Mostly Cloudy
5:52 AM 55.9 °F 55.0 °F 97% 29.95 in 10.0 mi Calm Calm - N/A   Scattered Clouds
6:52 AM 57.0 °F 55.0 °F 93% 29.96 in 10.0 mi West 5.8 mph - N/A   Mostly Cloudy
7:52 AM 57.9 °F 55.0 °F 90% 29.96 in 10.0 mi NW 4.6 mph - 0.00 in   Overcast
8:52 AM 60.1 °F 55.9 °F 86% 29.96 in 10.0 mi Calm Calm - N/A   Clear
9:42 AM 62.1 °F 57.9 °F 86% 29.96 in 10.0 mi North 4.6 mph - N/A   Partly Cloudy
9:52 AM 62.1 °F 57.9 °F 86% 29.95 in 10.0 mi NNE 5.8 mph - N/A   Partly Cloudy
10:52 AM 64.9 °F 59.0 °F 81% 29.95 in 10.0 mi ESE 3.5 mph - N/A   Scattered Clouds
11:50 AM 69.8 °F 57.2 °F 64% 29.95 in 10.0 mi WNW 5.8 mph - N/A   Mostly Cloudy
11:52 AM 69.1 °F 57.9 °F 68% 29.94 in 10.0 mi Variable 3.5 mph - N/A   Scattered Clouds
12:52 PM 72.0 °F 61.0 °F 68% 29.93 in 10.0 mi East 8.1 mph - N/A   Scattered Clouds
1:52 PM 73.9 °F 59.0 °F 59% 29.91 in 10.0 mi South 8.1 mph - N/A   Mostly Cloudy
2:52 PM 78.1 °F 53.1 °F 42% 29.90 in 10.0 mi WNW 12.7 mph 16.1 mph N/A   Scattered Clouds
3:52 PM 79.0 °F 52.0 °F 39% 29.89 in 10.0 mi WNW 6.9 mph - N/A   Partly Cloudy
4:52 PM 79.0 °F 50.0 °F 36% 29.87 in 10.0 mi NNW 8.1 mph 17.3 mph N/A   Partly Cloudy
5:52 PM 79.0 °F 48.9 °F 35% 29.86 in 10.0 mi WNW 13.8 mph 20.7 mph N/A   Scattered Clouds
6:52 PM 79.0 °F 48.0 °F 34% 29.86 in 10.0 mi West 9.2 mph - N/A   Clear
7:52 PM 77.0 °F 50.0 °F 39% 29.85 in 10.0 mi WNW 6.9 mph - N/A   Clear
8:52 PM 69.1 °F 55.9 °F 63% 29.86 in 10.0 mi WNW 5.8 mph - N/A   Clear
9:52 PM 64.0 °F 55.0 °F 73% 29.86 in 10.0 mi Calm Calm - N/A   Clear
10:52 PM 64.9 °F 55.0 °F 70% 29.87 in 10.0 mi North 3.5 mph - N/A   Mostly Cloudy
11:52 PM 61.0 °F 55.0 °F 81% 29.86 in 10.0 mi SSW 3.5 mph - N/A   Clear